Weather History for Plymouth, NH

Change the Weather History Date:

Saturday, February 23, 2013

  Actual Average (KLCI) Record (KLCI)
Temperature  
Mean Temperature 30 °F -  
Max Temperature 32 °F 41 °F 55 °F (1990)
Min Temperature 27 °F 18 °F 3 °F (1999)
Degree Days  
Heating Degree Days 36    
Moisture  
Dew Point 27 °F    
Average Humidity 87    
Maximum Humidity 99    
Minimum Humidity 67    
Precipitation  
Precipitation 0.14 in - - ()
Sea Level Pressure  
Sea Level Pressure 30.15 in    
Wind  
Wind Speed 3 mph (East)    
Max Wind Speed 8 mph    
Max Gust Speed -    
Visibility 6 miles    
Events Snow    
Averages and records for this station are not official NWS values.
T = Trace of Precipitation, MM = Missing Value Source: NWS Daily Summary

Daily Weather History Graph

Daily Weather History Graph

Search for Another Location

Airport:

Trip Planner

Search our weather history database for the weather conditions in past years. The results will help you decide how hot, cold, wet, or windy it might be!

Date:

Astronomy

Feb. 23, 2013 Rise Set
Actual Time 6:33 AM EST 5:28 PM EST
Civil Twilight 6:04 AM EST 5:57 PM EST
Nautical Twilight 5:30 AM EST 6:30 PM EST
Astronomical Twilight 4:57 AM EST 7:03 PM EST
Moon 3:33 PM EST (2/23) 4:56 AM EST (2/23)
Length of Visible Light 11h 53m
Length of Day
10h 54m
Waxing Gibbous, 95% of the Moon is Illuminated
Feb 23
Waxing Gibbous
Feb 25
Full
Mar 4
Last Quarter
Mar 11
New
Mar 19
First Quarter

Hourly Weather History & Observations

Time (EST) Temp. Windchill Dew Point Humidity Pressure Visibility Wind Dir Wind Speed Gust Speed Precip Events Conditions
12:15 AM 28.6 °F 22.4 °F 21.9 °F 76% 30.29 in 10.0 mi ENE 5.8 mph - N/A   Unknown
12:35 AM 31.1 °F 25.4 °F 21.4 °F 67% 30.29 in 10.0 mi ENE 5.8 mph - N/A   Unknown
12:55 AM 30.2 °F 25.4 °F 21.7 °F 71% 30.29 in 10.0 mi East 4.6 mph - N/A   Unknown
1:15 AM 30.2 °F 26.7 °F 21.7 °F 71% 30.29 in 10.0 mi East 3.5 mph - N/A   Unknown
1:35 AM 29.3 °F - 21.9 °F 74% 30.28 in 10.0 mi Calm Calm - N/A   Unknown
2:15 AM 27.5 °F - 21.7 °F 79% 30.27 in 10.0 mi Calm Calm - N/A   Unknown
2:35 AM 27.7 °F - 22.1 °F 80% 30.27 in 10.0 mi Calm Calm - N/A   Unknown
2:55 AM 28.4 °F - 21.9 °F 77% 30.26 in 10.0 mi Calm Calm - N/A   Unknown
3:15 AM 27.5 °F - 22.1 °F 80% 30.26 in 10.0 mi Calm Calm - N/A   Unknown
3:35 AM 27.5 °F - 22.6 °F 82% 30.26 in 10.0 mi Calm Calm - N/A   Unknown
3:55 AM 27.7 °F - 22.6 °F 81% 30.25 in 10.0 mi Calm Calm - N/A   Unknown
4:15 AM 28.2 °F - 22.8 °F 80% 30.24 in 10.0 mi Calm Calm - N/A   Unknown
4:35 AM 28.4 °F - 22.8 °F 80% 30.23 in 10.0 mi Calm Calm - N/A   Unknown
4:55 AM 28.4 °F - 23.7 °F 83% 30.24 in 10.0 mi Calm Calm - N/A   Unknown
5:15 AM 28.6 °F - 23.5 °F 81% 30.24 in 10.0 mi Calm Calm - N/A   Unknown
5:35 AM 29.3 °F 25.6 °F 23.5 °F 79% 30.24 in 10.0 mi ENE 3.5 mph - N/A   Unknown
5:55 AM 28.6 °F - 23.4 °F 81% 30.23 in 10.0 mi Calm Calm - N/A   Unknown
6:15 AM 28.2 °F - 23.7 °F 83% 30.23 in 10.0 mi Calm Calm - N/A   Unknown
6:35 AM 28.6 °F - 23.2 °F 80% 30.22 in 10.0 mi Calm Calm - N/A   Unknown
7:15 AM 30.0 °F 26.5 °F 23.4 °F 76% 30.22 in 10.0 mi ESE 3.5 mph - N/A   Unknown
7:35 AM 30.2 °F - 23.7 °F 77% 30.22 in 10.0 mi Calm Calm - N/A Snow Light Snow
7:55 AM 30.2 °F - 24.3 °F 79% 30.22 in 5.0 mi Calm Calm - N/A Snow Light Snow
8:15 AM 30.6 °F 24.7 °F 24.8 °F 79% 30.21 in 4.0 mi ESE 5.8 mph - N/A Snow Light Snow
8:35 AM 30.6 °F 27.1 °F 25.2 °F 80% 30.21 in 5.0 mi East 3.5 mph - N/A Snow Light Snow
8:55 AM 30.7 °F 26.0 °F 25.7 °F 82% 30.21 in 5.0 mi ESE 4.6 mph - N/A Snow Light Snow
9:15 AM 30.9 °F 25.2 °F 25.7 °F 81% 30.21 in 10.0 mi East 5.8 mph - N/A   Unknown
9:35 AM 30.9 °F 23.5 °F 25.7 °F 81% 30.20 in 10.0 mi East 8.1 mph - N/A   Unknown
9:55 AM 31.1 °F 23.7 °F 25.7 °F 80% 30.19 in 10.0 mi East 8.1 mph - N/A   Unknown
10:15 AM 31.1 °F 26.4 °F 25.7 °F 80% 30.19 in 10.0 mi East 4.6 mph - N/A   Unknown
10:55 AM 31.6 °F 26.0 °F 26.6 °F 82% 30.18 in 10.0 mi East 5.8 mph - N/A   Unknown
11:15 AM 32.0 °F 24.8 °F 27.0 °F 82% 30.17 in 7.0 mi East 8.1 mph - N/A   Unknown
11:35 AM 32.0 °F 26.4 °F 27.1 °F 82% 30.17 in 10.0 mi East 5.8 mph - N/A   Unknown
11:55 AM 32.0 °F 26.4 °F 27.5 °F 83% 30.15 in 5.0 mi East 5.8 mph - N/A   Unknown
12:15 PM 32.0 °F 27.5 °F 28.2 °F 86% 30.15 in 1.8 mi East 4.6 mph - N/A Snow Light Snow
12:35 PM 32.0 °F 27.5 °F 28.9 °F 88% 30.14 in 1.5 mi East 4.6 mph - N/A Snow Light Snow
1:15 PM 32.0 °F 26.4 °F 29.3 °F 90% 30.12 in 1.5 mi East 5.8 mph - N/A Snow Light Snow
1:35 PM 32.0 °F 27.5 °F 29.8 °F 92% 30.11 in 1.2 mi East 4.6 mph - N/A Snow Light Snow
1:55 PM 32.0 °F 27.5 °F 29.8 °F 92% 30.11 in 1.2 mi East 4.6 mph - N/A Snow Light Snow
2:15 PM 32.0 °F 27.5 °F 30.0 °F 92% 30.10 in 1.5 mi East 4.6 mph - N/A Snow Light Snow
2:35 PM 32.0 °F 27.5 °F 30.2 °F 93% 30.10 in 1.2 mi ESE 4.6 mph - N/A Snow Light Snow
2:55 PM 32.0 °F 27.5 °F 30.7 °F 95% 30.09 in 1.0 mi East 4.6 mph - N/A Snow Light Snow
3:15 PM 32.0 °F 27.5 °F 31.1 °F 96% 30.09 in 1.0 mi East 4.6 mph - N/A Snow Light Snow
3:35 PM 32.0 °F 27.5 °F 31.1 °F 96% 30.09 in 1.2 mi East 4.6 mph - N/A Snow Light Snow
4:15 PM 32.0 °F 27.5 °F 31.1 °F 96% 30.07 in 1.2 mi East 4.6 mph - N/A Snow Light Snow
4:35 PM 32.0 °F - 31.1 °F 96% 30.07 in 1.5 mi Calm Calm - N/A Snow Light Snow
5:15 PM 32.0 °F 28.7 °F 31.1 °F 96% 30.06 in 0.8 mi East 3.5 mph - N/A Snow Light Snow
5:35 PM 32.0 °F 28.7 °F 31.3 °F 97% 30.05 in 0.8 mi East 3.5 mph - 0.01 in Snow Snow
5:55 PM 32.0 °F 28.7 °F 31.5 °F 98% 30.05 in 1.0 mi East 3.5 mph - 0.02 in Snow Snow
6:15 PM 32.0 °F 27.5 °F 31.5 °F 98% 30.05 in 1.2 mi East 4.6 mph - 0.01 in Snow Light Snow
6:35 PM 31.8 °F - 31.1 °F 97% 30.05 in 1.5 mi Calm Calm - 0.02 in Snow Light Snow
6:55 PM 31.6 °F - 31.3 °F 99% 30.04 in 1.2 mi Calm Calm - 0.03 in Snow Light Snow
7:15 PM 31.8 °F 28.5 °F 31.5 °F 99% 30.04 in 1.2 mi ESE 3.5 mph - 0.02 in Snow Light Snow
7:35 PM 31.8 °F - 31.5 °F 99% 30.03 in 1.8 mi Calm Calm - 0.02 in Snow Light Snow
8:15 PM 31.8 °F 28.5 °F 31.5 °F 99% 30.02 in 1.5 mi East 3.5 mph - 0.01 in Snow Light Snow
8:55 PM 31.8 °F - 31.5 °F 99% 30.01 in 1.8 mi Calm Calm - 0.02 in Snow Light Snow
9:15 PM 32.0 °F - 31.6 °F 99% 30.02 in 1.2 mi Calm Calm - 0.01 in Snow Light Snow
9:35 PM 32.0 °F - 31.6 °F 99% 30.01 in 1.2 mi Calm Calm - 0.03 in Snow Light Snow
9:55 PM 32.0 °F - 31.6 °F 99% 30.00 in 1.5 mi Calm Calm - 0.04 in Snow Light Snow
10:15 PM 32.0 °F - 31.8 °F 99% 29.99 in 2.0 mi Calm Calm - N/A Snow Light Snow
10:35 PM 32.0 °F - 31.8 °F 99% 29.98 in 2.0 mi Calm Calm - 0.01 in Snow Light Snow
10:55 PM 32.0 °F - 31.8 °F 99% 29.96 in 2.5 mi Calm Calm - 0.01 in Snow Light Snow
11:15 PM 32.0 °F - 31.8 °F 99% 29.96 in 4.0 mi Calm Calm - N/A   Mist
11:35 PM 32.0 °F - 31.8 °F 99% 29.96 in 2.5 mi Calm Calm - N/A Snow Light Snow